Hourly Weather Otlowiec

Today, 30 July, Friday

Time Temperature Precipitation Wind Pressure Humidity
00:00 +18°C° 0 mm 3 mps 749 mmHg 68%
01:00 +17°C° 0 mm 2 mps 749 mmHg 69%
02:00 +17°C° 0 mm 2 mps 749 mmHg 72%
03:00 +16°C° 0 mm 2 mps 749 mmHg 74%
04:00 +14°C° 0 mm 3 mps 749 mmHg 76%
05:00 +17°C° 0 mm 3 mps 749 mmHg 69%
06:00 +18°C° 0 mm 4 mps 749 mmHg 62%
07:00 +20°C° 0 mm 5 mps 749 mmHg 54%
08:00 +21°C° 0 mm 6 mps 749 mmHg 50%
09:00 +22°C° 0 mm 7 mps 748 mmHg 45%
10:00 +23°C° 0 mm 7 mps 748 mmHg 40%
11:00 +24°C° 0 mm 8 mps 748 mmHg 37%
12:00 +26°C° 0 mm 8 mps 748 mmHg 34%
13:00 +27°C° 0 mm 8 mps 748 mmHg 32%
14:00 +27°C° 0 mm 7 mps 747 mmHg 32%
15:00 +27°C° 0 mm 7 mps 747 mmHg 33%
16:00 +27°C° 0 mm 7 mps 747 mmHg 33%
17:00 +24°C° 0 mm 6 mps 747 mmHg 38%
18:00 +23°C° 0 mm 4 mps 747 mmHg 43%
19:00 +21°C° 0 mm 3 mps 747 mmHg 47%
20:00 +20°C° 0 mm 3 mps 747 mmHg 51%
21:00 +19°C° 0 mm 3 mps 747 mmHg 54%
22:00 +17°C° 0 mm 3 mps 747 mmHg 57%
23:00 +17°C° 0 mm 2 mps 748 mmHg 59%

Tomorrow, 31 July, Saturday

Time Temperature Precipitation Wind Pressure Humidity
00:00 +16°C° 0 mm 2 mps 748 mmHg 61%
01:00 +16°C° 0 mm 2 mps 748 mmHg 64%
02:00 +16°C° 0 mm 2 mps 748 mmHg 64%
03:00 +16°C° 0 mm 2 mps 747 mmHg 65%
04:00 +16°C° 0 mm 2 mps 747 mmHg 65%
05:00 +17°C° 0 mm 3 mps 747 mmHg 62%
06:00 +19°C° 0 mm 3 mps 747 mmHg 59%
07:00 +20°C° 0 mm 3 mps 747 mmHg 55%
08:00 +22°C° 0 mm 4 mps 747 mmHg 52%
09:00 +25°C° 0 mm 4 mps 747 mmHg 48%
10:00 +27°C° 0 mm 5 mps 747 mmHg 45%
11:00 +27°C° 0 mm 5 mps 746 mmHg 47%
12:00 +26°C° 0 mm 5 mps 746 mmHg 49%
13:00 +26°C° 0 mm 5 mps 746 mmHg 51%
14:00 +26°C° 0 mm 5 mps 746 mmHg 49%
15:00 +26°C° 0 mm 4 mps 746 mmHg 48%
16:00 +26°C° 0 mm 3 mps 746 mmHg 46%
17:00 +25°C° 0 mm 3 mps 746 mmHg 46%
18:00 +25°C° 0 mm 3 mps 746 mmHg 46%
19:00 +24°C° 0 mm 3 mps 745 mmHg 46%
20:00 +21°C° 0 mm 3 mps 746 mmHg 51%
21:00 +20°C° 0 mm 3 mps 746 mmHg 55%
22:00 +19°C° 0 mm 3 mps 747 mmHg 59%
23:00 +18°C° 0 mm 3 mps 747 mmHg 62%

Day after tomorrow, 1 August, Sunday

Time Temperature Precipitation Wind Pressure Humidity
00:00 +17°C° 0 mm 3 mps 747 mmHg 64%
01:00 +17°C° 0 mm 4 mps 747 mmHg 66%
02:00 +15°C° 0 mm 4 mps 747 mmHg 69%
03:00 +15°C° 0 mm 4 mps 747 mmHg 71%
04:00 +15°C° 0 mm 4 mps 747 mmHg 74%
05:00 +17°C° 0 mm 4 mps 747 mmHg 72%
06:00 +18°C° 0 mm 4 mps 747 mmHg 70%
07:00 +19°C° 0 mm 4 mps 747 mmHg 69%
08:00 +20°C° 0 mm 4 mps 748 mmHg 64%
09:00 +21°C° 0 mm 4 mps 748 mmHg 59%
10:00 +22°C° 0 mm 4 mps 748 mmHg 55%
11:00 +22°C° 0 mm 4 mps 748 mmHg 54%
12:00 +22°C° 0 mm 4 mps 748 mmHg 54%
13:00 +22°C° 0 mm 5 mps 748 mmHg 54%
14:00 +21°C° 0.2 mm 4 mps 748 mmHg 59%
15:00 +21°C° 0.2 mm 4 mps 748 mmHg 65%
16:00 +20°C° 0.2 mm 4 mps 748 mmHg 71%
17:00 +19°C° 0.1 mm 3 mps 748 mmHg 72%
18:00 +19°C° 0.1 mm 2 mps 748 mmHg 73%
19:00 +19°C° 0.1 mm 2 mps 748 mmHg 74%
20:00 +19°C° 0 mm 1 mps 748 mmHg 76%
21:00 +18°C° 0 mm 1 mps 748 mmHg 78%
22:00 +16°C° 0 mm 1 mps 748 mmHg 81%
23:00 +15°C° 0 mm 1 mps 748 mmHg 81%

2 August, Monday

Time Temperature Precipitation Wind Pressure Humidity
00:00 +15°C° 0 mm 1 mps 748 mmHg 81%
01:00 +15°C° 0 mm 1 mps 748 mmHg 82%
02:00 +15°C° 0 mm 2 mps 748 mmHg 83%
03:00 +14°C° 0 mm 2 mps 748 mmHg 85%
04:00 +14°C° 0 mm 2 mps 748 mmHg 86%
05:00 +14°C° 0 mm 3 mps 748 mmHg 80%
06:00 +17°C° 0 mm 3 mps 748 mmHg 73%
07:00 +19°C° 0 mm 3 mps 748 mmHg 66%
08:00 +20°C° 0.1 mm 4 mps 748 mmHg 63%
09:00 +21°C° 0.1 mm 5 mps 748 mmHg 60%
10:00 +22°C° 0.1 mm 5 mps 748 mmHg 57%
11:00 +22°C° 0.3 mm 5 mps 748 mmHg 57%
12:00 +22°C° 0.3 mm 5 mps 748 mmHg 57%
13:00 +21°C° 0.3 mm 5 mps 748 mmHg 58%
14:00 +22°C° 0 mm 5 mps 748 mmHg 52%
15:00 +22°C° 0 mm 5 mps 748 mmHg 46%
16:00 +23°C° 0 mm 5 mps 748 mmHg 40%
17:00 +22°C° 0 mm 4 mps 749 mmHg 43%
18:00 +21°C° 0 mm 4 mps 749 mmHg 45%
19:00 +20°C° 0 mm 3 mps 749 mmHg 47%
20:00 +19°C° 0 mm 3 mps 750 mmHg 52%
21:00 +17°C° 0 mm 3 mps 750 mmHg 57%
22:00 +16°C° 0 mm 3 mps 751 mmHg 61%
23:00 +14°C° 0 mm 3 mps 751 mmHg 65%

3 August, Tuesday

Time Temperature Precipitation Wind Pressure Humidity
00:00 +14°C° 0 mm 3 mps 751 mmHg 68%
01:00 +13°C° 0 mm 3 mps 751 mmHg 72%
02:00 +13°C° 0 mm 3 mps 751 mmHg 76%
03:00 +12°C° 0 mm 3 mps 751 mmHg 80%
04:00 +12°C° 0 mm 3 mps 752 mmHg 83%
05:00 +13°C° 0 mm 4 mps 752 mmHg 77%
06:00 +15°C° 0 mm 4 mps 752 mmHg 70%
07:00 +17°C° 0 mm 5 mps 752 mmHg 64%
08:00 +19°C° 0 mm 5 mps 752 mmHg 57%
09:00 +21°C° 0 mm 5 mps 752 mmHg 50%
10:00 +22°C° 0 mm 5 mps 752 mmHg 43%
11:00 +23°C° 0 mm 5 mps 752 mmHg 39%
12:00 +25°C° 0 mm 5 mps 752 mmHg 36%
13:00 +26°C° 0 mm 5 mps 752 mmHg 33%
14:00 +26°C° 0 mm 5 mps 752 mmHg 33%
15:00 +26°C° 0 mm 5 mps 752 mmHg 33%
16:00 +26°C° 0 mm 4 mps 751 mmHg 34%
17:00 +23°C° 0 mm 4 mps 752 mmHg 42%
18:00 +21°C° 0 mm 3 mps 752 mmHg 50%
19:00 +20°C° 0 mm 2 mps 752 mmHg 58%
20:00 +19°C° 0 mm 2 mps 752 mmHg 63%
21:00 +18°C° 0 mm 2 mps 752 mmHg 69%
22:00 +17°C° 0 mm 2 mps 752 mmHg 75%
23:00 +17°C° 0 mm 2 mps 752 mmHg 77%

4 August, Wednesday

Time Temperature Precipitation Wind Pressure Humidity
00:00 +18°C° 0 mm 1 mps 752 mmHg 78%
01:00 +16°C° 0 mm 1 mps 752 mmHg 79%
02:00 +16°C° 0.1 mm 1 mps 752 mmHg 82%
03:00 +16°C° 0.1 mm 1 mps 752 mmHg 84%
04:00 +16°C° 0.1 mm 1 mps 752 mmHg 86%
05:00 +16°C° 0 mm 1 mps 752 mmHg 84%
06:00 +18°C° 0 mm 1 mps 753 mmHg 83%
07:00 +18°C° 0 mm 1 mps 753 mmHg 81%
08:00 +19°C° 0.2 mm 1 mps 753 mmHg 76%
09:00 +21°C° 0.2 mm 1 mps 753 mmHg 71%
10:00 +22°C° 0.2 mm 1 mps 753 mmHg 66%
11:00 +22°C° 0.6 mm 1 mps 752 mmHg 65%
12:00 +23°C° 0.6 mm 1 mps 752 mmHg 63%
13:00 +23°C° 0.6 mm 1 mps 752 mmHg 62%
14:00 +23°C° 0.6 mm 1 mps 752 mmHg 63%
15:00 +23°C° 0.6 mm 2 mps 752 mmHg 65%
16:00 +23°C° 0.6 mm 2 mps 752 mmHg 67%
17:00 +21°C° 0.6 mm 2 mps 752 mmHg 72%
18:00 +20°C° 0.6 mm 2 mps 752 mmHg 77%
19:00 +19°C° 0.6 mm 2 mps 751 mmHg 82%
20:00 +18°C° 0.8 mm 2 mps 751 mmHg 86%
21:00 +17°C° 0.8 mm 2 mps 751 mmHg 89%
22:00 +16°C° 0.8 mm 2 mps 751 mmHg 93%
23:00 +16°C° 0.3 mm 2 mps 751 mmHg 94%
Show more